Drogheda, Ireland

4:16 AM IST on May 24, 2018 (GMT +0100)
Drogheda

Weather History for 03969 - October, 2011

Change the Weather History Date:

Monday, October 17, 2011

  Actual Average Record
Temperature  
Mean Temperature 50 °F -  
Max Temperature 58 °F 53 °F - ()
Min Temperature 41 °F 43 °F - ()
Degree Days  
Heating Degree Days 16    
Moisture  
Dew Point 44 °F    
Average Humidity 82    
Maximum Humidity 100    
Minimum Humidity 56    
Precipitation  
Precipitation 0.24 in 0.09 in - ()
Sea Level Pressure  
Sea Level Pressure 29.77 in    
Wind  
Wind Speed 18 mph ()    
Max Wind Speed 34 mph    
Max Gust Speed 52 mph    
Visibility 6.2 miles    
Events Rain    
T = Trace of Precipitation, MM = Missing Value Source: Averaged Metar Reports

Daily Weather History Graph

Daily Weather History Graph

Search for Another Location

Airport or City:

Astronomy

Oct. 17, 2011 Rise Set
Actual Time 7:54 AM IST 6:25 PM IST
Civil Twilight 7:19 AM IST 7:00 PM IST
Nautical Twilight 6:39 AM IST 7:40 PM IST
Astronomical Twilight 5:58 AM IST 8:21 PM IST
Moon 9:15 PM IST (10/17) 1:28 PM IST (10/17)
Length of Visible Light 11h 40m
Length of Day
10h 30m
Waning Gibbous, 76% of the Moon is Illuminated
Oct 17
Waning Gibbous
Oct 20
Last Quarter
Oct 26
New
Nov 2
First Quarter
Nov 10
Full

Hourly Weather History & Observations

Time (IST) Temp. Windchill Dew Point Humidity Pressure Visibility Wind Dir Wind Speed Gust Speed Precip Events Conditions
12:00 AM 51.8 °F - 44.6 °F 76% 30.01 in - SSW 13.8 mph - N/A   Clear
12:30 AM 50.0 °F - 44.6 °F 82% 30.01 in - SSW 15.0 mph - N/A   Clear
1:00 AM 50 °F - 44 °F 72% 30.02 in 25 mi SSW 15.7 mph - -   Scattered Clouds
1:00 AM 50.0 °F - 44.6 °F 82% 30.01 in - SSW 15.0 mph - N/A   Clear
1:30 AM 50.0 °F - 44.6 °F 82% 29.98 in - SSW 16.1 mph - N/A   Clear
2:00 AM 50.0 °F - 44.6 °F 82% 29.98 in 6.2 mi SSW 17.3 mph - N/A   Partly Cloudy
2:30 AM 51.8 °F - 44.6 °F 76% 29.98 in 6.2 mi SSW 15.0 mph - N/A   Partly Cloudy
3:00 AM 50.0 °F - 44.6 °F 82% 29.98 in 6.2 mi SSW 17.3 mph - N/A   Partly Cloudy
3:30 AM 50.0 °F - 44.6 °F 82% 29.95 in - SSW 16.1 mph - N/A   Clear
4:00 AM 50.0 °F - 44.6 °F 82% 29.92 in 6.2 mi SSW 17.3 mph - N/A   Partly Cloudy
4:30 AM 50.0 °F - 44.6 °F 82% 29.92 in 6.2 mi SSW 15.0 mph - N/A   Scattered Clouds
5:00 AM 51.8 °F - 44.6 °F 76% 29.92 in 6.2 mi SSW 17.3 mph - N/A   Mostly Cloudy
5:30 AM 50.0 °F - 46.4 °F 87% 29.89 in 6.2 mi SSW 17.3 mph - N/A   Mostly Cloudy
6:00 AM 50.0 °F - 44.6 °F 82% 29.89 in 6.2 mi SW 18.4 mph - N/A   Scattered Clouds
6:30 AM 50.0 °F - 44.6 °F 82% 29.89 in 6.2 mi SSW 17.3 mph - N/A   Scattered Clouds
7:00 AM 50 °F - 44 °F 75% 29.88 in 25 mi SW 17.9 mph - -   Scattered Clouds
7:00 AM 50.0 °F - 44.6 °F 82% 29.86 in 6.2 mi SW 18.4 mph - N/A   Scattered Clouds
7:30 AM 50.0 °F - 44.6 °F 82% 29.86 in 6.2 mi SSW 18.4 mph - N/A   Scattered Clouds
8:00 AM 51.8 °F - 44.6 °F 76% 29.83 in 6.2 mi SW 20.7 mph - N/A   Mostly Cloudy
8:30 AM 51.8 °F - 44.6 °F 76% 29.83 in 6.2 mi SW 20.7 mph - N/A   Mostly Cloudy
9:00 AM 51.8 °F - 44.6 °F 76% 29.83 in 6.2 mi SW 23.0 mph 36.8 mph N/A   Mostly Cloudy
9:30 AM 51.8 °F - 46.4 °F 82% 29.80 in 6.2 mi SW 21.9 mph - N/A   Mostly Cloudy
10:00 AM 51.8 °F - 46.4 °F 82% 29.80 in 6.2 mi SSW 20.7 mph 32.2 mph N/A   Mostly Cloudy
10:30 AM 53.6 °F - 46.4 °F 77% 29.77 in 6.2 mi SSW 20.7 mph 33.4 mph N/A   Mostly Cloudy
11:00 AM 53.6 °F - 46.4 °F 77% 29.77 in 6.2 mi SSW 20.7 mph - N/A   Mostly Cloudy
11:30 AM 53.6 °F - 46.4 °F 77% 29.74 in 6.2 mi SW 24.2 mph 38.0 mph N/A   Mostly Cloudy
12:00 PM 55.4 °F - 46.4 °F 72% 29.68 in 6.2 mi SSW 26.5 mph - N/A   Mostly Cloudy
12:30 PM 55.4 °F - 46.4 °F 72% 29.65 in 6.2 mi SW 33.4 mph 44.9 mph N/A   Mostly Cloudy
1:00 PM 57 °F - 46 °F 56% 29.64 in 25 mi SW 33.6 mph - -   Partly Cloudy
1:00 PM 57.2 °F - 46.4 °F 67% 29.62 in 6.2 mi SW 34.5 mph 48.3 mph N/A   Mostly Cloudy
1:30 PM 57.2 °F - 46.4 °F 67% 29.59 in 6.2 mi SW 34.5 mph 46.0 mph N/A   Mostly Cloudy
2:00 PM 55.4 °F - 48.2 °F 77% 29.59 in 6.2 mi SW 34.5 mph 51.8 mph N/A Rain Light Rain Showers
2:30 PM 55.4 °F - 48.2 °F 77% 29.53 in 6.2 mi SW 34.5 mph 48.3 mph N/A   Mostly Cloudy
3:00 PM 55.4 °F - 48.2 °F 77% 29.53 in 6.2 mi SSW 33.4 mph 49.5 mph N/A   Mostly Cloudy
3:30 PM 55.4 °F - 50.0 °F 82% 29.50 in 6.2 mi SW 32.2 mph 46.0 mph N/A Rain Light Rain Showers
4:00 PM 42.8 °F 33.8 °F 41.0 °F 93% 29.59 in 5.0 mi NW 21.9 mph 33.4 mph N/A Rain Rain
4:30 PM 41.0 °F 32.5 °F 39.2 °F 93% 29.62 in 5.6 mi WNW 17.3 mph - N/A Rain Light Rain
5:00 PM 41.0 °F 33.5 °F 41.0 °F 100% 29.65 in 6.2 mi West 13.8 mph - N/A Rain Light Rain
5:30 PM 41.0 °F 33.5 °F 41.0 °F 100% 29.65 in 6.2 mi WSW 13.8 mph - N/A   Mostly Cloudy
6:00 PM 41.0 °F 32.8 °F 41.0 °F 100% 29.65 in 6.2 mi WSW 16.1 mph - N/A   Scattered Clouds
6:30 PM 42.8 °F 34.8 °F 41.0 °F 93% 29.68 in 6.2 mi WSW 17.3 mph - N/A   Scattered Clouds
7:00 PM 42 °F - 40 °F 90% 29.70 in 31 mi WSW 17.9 mph - -   Partly Cloudy
7:00 PM 41.0 °F 32.2 °F 39.2 °F 93% 29.68 in 6.2 mi WSW 18.4 mph - N/A   Scattered Clouds
7:30 PM 41.0 °F 31.6 °F 39.2 °F 93% 29.68 in 6.2 mi WSW 20.7 mph - N/A   Scattered Clouds
8:00 PM 41.0 °F 31.9 °F 39.2 °F 93% 29.68 in 6.2 mi WSW 19.6 mph - N/A   Scattered Clouds
8:30 PM 42.8 °F 34.0 °F 39.2 °F 87% 29.68 in 6.2 mi WSW 20.7 mph - N/A   Partly Cloudy
9:00 PM 42.8 °F 34.0 °F 39.2 °F 87% 29.68 in 6.2 mi WSW 20.7 mph - N/A   Scattered Clouds
9:30 PM 42.8 °F 33.8 °F 39.2 °F 87% 29.71 in 6.2 mi WSW 21.9 mph - N/A   Scattered Clouds
10:00 PM 41.0 °F 31.4 °F 39.2 °F 93% 29.71 in 6.2 mi WSW 21.9 mph - N/A   Mostly Cloudy
10:30 PM 42.8 °F 34.5 °F 39.2 °F 87% 29.71 in - WSW 18.4 mph - N/A   Clear
11:00 PM 41.0 °F 31.4 °F 39.2 °F 93% 29.71 in - WSW 21.9 mph - N/A   Clear
11:30 PM 42.8 °F 34.0 °F 37.4 °F 81% 29.71 in - WSW 20.7 mph - N/A   Clear